ROMMA est une association bénévole à but non lucratif. Votre soutien est indispensable : ADHERER à ROMMA ou FAIRE un DON

Chambon - (38, Isère)

Oisans (2460 m)   Longitude: 06° 10' 42" E   Latitude: 45° 01' 32" N Station partenaire n°803
 

Détail journalier du     <<     >>

Température Humidité Vent Dir Rafale Dir. rafale Neige 1 Neige 2
Heure (°C) (%) (km/h) (km/h) (cm) (cm)
01:00 -5.5975NNE29ONO194236
02:00 -6.59714OSO31OSO197237
03:00 -8.69515OSO32OSO203240
04:00 -9.09518SO33OSO202240
05:00 -9.0958ENE26ENE2070
06:00 -8.7954ENE22O210222
07:00 -9.1956OSO19O209220
08:00 -9.2959OSO15O210222
09:00 -8.99512OSO19O216224
10:00 -8.69513O19O216223
11:00 -8.39512O18O216224
12:00 -8.49512O17O217225
13:00 -7.19510O14O215225
14:00 -4.69610OSO17OSO213223
15:00 -6.49617OSO29O213224
16:00 -6.89516O29O213224
17:00 -7.8949O20O212224
18:00 -7.49510O21O212223
19:00 -9.29511OSO22OSO212223
20:00 -9.6959SO18OSO2110
21:00 -11.39413NE31NE210223
22:00 -12.09317NE32ENE210222
23:00 -12.19314NE32ENE209224
minuit -12.69310NE17NE209224

Graphique du 04-04-2019

 

Serveur OMMA